Thompson, Ohio, United States (44086)
Lat: 41.69N, Lon: 81.05W
Wx Zone: OHZ013
Local Info
Past Weather Observations for Monday, April 25, 2016

NOTE: This archive is for the closest National Weather Service station to Thompson. Information may differ from the station used for current weather conditions.

Click here for Long-term Archive

Time Weather Temperature Dewpoint Humidity Pressure Winds Precip Visibility
23:53
Mostly Cloudy
48°F / 9°C 46°F / 8°C 94% 29.71 in
(1006 mb)
Calm - 10SM
22:53
Mostly Cloudy
50°F / 10°C 46°F / 8°C 88% 29.74 in
(1007 mb)
NE 3.5 mph
(NE 6 kph)
- 10SM
21:53
Partly Cloudy
52°F / 11°C 50°F / 10°C 94% 29.74 in
(1007 mb)
Variable 4.6 mph
(Variable 7 kph)
- 10SM
20:53
Partly Cloudy
57°F / 14°C 54°F / 12°C 88% 29.77 in
(1008 mb)
Calm - 10SM
19:53
Mostly Cloudy
59°F / 15°C 54°F / 12°C 82% 29.77 in
(1008 mb)
SSE 6.9 mph
(SSE 11 kph)
- 10SM
18:53
Overcast
57°F / 14°C 52°F / 11°C 82% 29.77 in
(1008 mb)
SE 6.9 mph
(SE 11 kph)
0.01 in
(0.25 mm)
10SM
17:53
Overcast
Light Rain
63°F / 17°C 43°F / 6°C 49% 29.8 in
(1009 mb)
Calm 0.00 in
(0.00 mm)
7SM
16:53
Mostly Cloudy
64°F / 18°C 41°F / 5°C 43% 29.8 in
(1009 mb)
NE 4.6 mph
(NE 7 kph)
- 10SM
15:53
Mostly Cloudy
66°F / 19°C 43°F / 6°C 43% 29.8 in
(1009 mb)
NE 4.6 mph
(NE 7 kph)
- 10SM
14:53
Mostly Cloudy
70°F / 21°C 45°F / 7°C 40% 29.83 in
(1010 mb)
N 8.1 mph
(N 13 kph)
- 10SM
13:53
Clear
75°F / 24°C 43°F / 6°C 31% 29.86 in
(1011 mb)
SW 6.9 mph
(SW 11 kph)
- 10SM
12:53
Clear
73°F / 23°C 43°F / 6°C 33% 29.89 in
(1012 mb)
SSW 8.1 mph
(SSW 13 kph)
- 10SM
11:53
Clear
72°F / 22°C 41°F / 5°C 33% 29.92 in
(1013 mb)
S 6.9 mph
(S 11 kph)
- 10SM
10:53
Clear
66°F / 19°C 39°F / 4°C 37% 29.92 in
(1013 mb)
SE 5.8 mph
(SE 9 kph)
- 10SM
09:53
Clear
64°F / 18°C 36°F / 2°C 34% 29.95 in
(1014 mb)
Calm - 10SM
08:53
Clear
61°F / 16°C 36°F / 2°C 39% 29.98 in
(1015 mb)
S 5.8 mph
(S 9 kph)
- 10SM
07:53
Clear
55°F / 13°C 37°F / 3°C 51% 29.98 in
(1015 mb)
SE 3.5 mph
(SE 6 kph)
- 10SM
06:53
Partly Cloudy
50°F / 10°C 37°F / 3°C 62% 29.98 in
(1015 mb)
E 3.5 mph
(E 6 kph)
- 10SM
05:53
Overcast
46°F / 8°C 36°F / 2°C 66% 30.01 in
(1016 mb)
SE 5.8 mph
(SE 9 kph)
- 10SM
04:53
Mostly Cloudy
39°F / 4°C 34°F / 1°C 81% 30.01 in
(1016 mb)
ESE 4.6 mph
(ESE 7 kph)
- 10SM
03:53
Partly Cloudy
39°F / 4°C 34°F / 1°C 81% 29.98 in
(1015 mb)
Calm - 10SM
02:53
Clear
39°F / 4°C 34°F / 1°C 81% 30.01 in
(1016 mb)
Calm - 10SM
01:53
Clear
43°F / 6°C 34°F / 1°C 71% 30.01 in
(1016 mb)
Calm - 10SM
00:53
Partly Cloudy
45°F / 7°C 32°F / 0°C 61% 30.01 in
(1016 mb)
Calm - 10SM
Time Weather Temperature Dewpoint Humidity Pressure Winds Precip Visibility


Weather for websites

WeatherForYou.com, LLC is not responsible for any damages or problems caused by this service. Current weather conditions are obtained from the closest station including government and personal stations which may have varying degrees of accuracy. Weather forecasts are derived from the NOAA NDFD. Like all things, this site belongs to Jesus Christ... He just trusts us to maintain it. If you have any questions or comments email webmaster@weatherforyou.com

Copyright © 2016, WeatherForYou.com LLC. All rights reserved.